Location: Pontbriand
(46.1542°N, 71.2542°W)
Time: 18:11:45
(UTC+00:00)

ISS - Visible Passes

Search period start: 27 November 2021 00:00
Search period end: 07 December 2021 00:00
Orbit: 417 x 423 km, 51.6° (Epoch: 27 November)

Date Brightness Start Highest point End Pass type
(mag) Time Alt. Az. Time Alt. Az. Time Alt. Az.
27 Nov -2.7 22:16:34 10° WNW 22:19:44 35° N 22:21:27 21° NE visible
27 Nov -0.6 23:53:56 10° WNW 23:54:26 13° NW 23:54:26 13° NW visible
28 Nov -2.3 23:06:42 10° WNW 23:09:08 29° NNW 23:09:08 29° NNW visible
29 Nov -2.6 22:19:25 10° WNW 22:22:29 31° N 22:23:50 23° NE visible
29 Nov -0.6 23:56:26 10° WNW 23:56:49 13° WNW 23:56:49 13° WNW visible
30 Nov -2.6 21:32:03 10° WNW 21:35:09 32° N 21:38:15 10° ENE visible
30 Nov -2.4 23:09:14 10° WNW 23:11:32 32° NNW 23:11:32 32° NNW visible
01 Dec -2.9 22:22:00 10° WNW 22:25:10 35° N 22:26:17 27° NE visible
01 Dec -0.5 23:58:50 10° WNW 23:59:16 13° WNW 23:59:16 13° WNW visible
02 Dec -2.7 21:34:42 10° WNW 21:37:49 32° N 21:40:55 10° ENE visible
02 Dec -2.8 23:11:36 10° WNW 23:14:05 45° NW 23:14:05 45° NW visible
03 Dec -3.5 22:24:22 10° WNW 22:27:42 53° NNE 22:28:59 32° E visible
04 Dec -0.5 00:01:22 10° WNW 00:01:59 14° W 00:01:59 14° W visible
04 Dec -3.2 21:37:06 10° WNW 21:40:22 42° NNE 21:43:37 10° E visible
04 Dec -2.9 23:13:58 10° WNW 23:17:01 48° SW 23:17:01 48° SW visible
05 Dec -3.6 22:26:38 10° WNW 22:30:01 76° SSW 22:32:14 20° SE visible
06 Dec -0.3 00:04:44 10° WSW 00:05:15 11° WSW 00:05:15 11° WSW visible
06 Dec -3.8 21:39:20 10° WNW 21:42:44 74° NNE 21:46:06 10° ESE visible
06 Dec -1.3 23:16:41 10° W 23:19:15 20° SW 23:20:43 16° S visible
